FW1108 Weather Reports


Display with metric or nautical units.
time (UTC)temp
F
wind
direction
speed
MPH
gust
MPH
rain 1hr
in
rain 24hr
in
rain mn
in
humidity
%
barometer
mb
20260505041603 47 218 8.0 17.0 0.00 0.18 0.00 83 1005.8
20260505040056 44 0.0 0.0 0.00 0.18 0.00 85 1005.7
20260505034545 45 0.0 0.0 0.00 0.18 0.00 85 1005.5
20260505033049 45 0.0 0.0 0.00 0.18 0.00 82 1005.3
20260505031549 47 0.0 0.0 0.00 0.18 0.00 76 1005.0
20260505030048 50 0.0 0.0 0.00 0.18 0.00 76 1004.8
20260505024548 49 0.0 0.0 0.00 0.18 0.18 78 1004.7
20260505023048 45 0.0 0.0 0.00 0.18 0.18 85 1004.6
20260505021545 44 0.0 0.0 0.00 0.18 0.18 85 1004.4
20260505020049 45 0.0 0.0 0.00 0.18 0.18 84 1004.2
20260505014604 45 0.0 0.0 0.00 0.18 0.18 83 1004.1
20260505013050 45 0.0 0.0 0.00 0.18 0.18 82 1004.0
20260505011544 44 0.0 0.0 0.00 0.18 0.18 81 1004.2
20260505010043 46 0.0 0.0 0.00 0.18 0.18 77 1004.0
20260505004545 50 0.0 0.0 0.00 0.21 0.18 73 1003.9
20260505003050 50 0.0 0.0 0.00 0.21 0.18 72 1003.9
20260505001603 51 0.0 0.0 0.00 0.21 0.18 72 1003.8
20260505000107 51 0.0 0.0 0.00 0.21 0.18 70 1003.7
20260504234611 52 0.0 0.0 0.00 0.29 0.18 64 1003.3
20260504233045 53 0.0 0.0 0.00 0.29 0.18 53 1003.3
20260504231550 52 0.0 0.0 0.00 0.29 0.18 59 1002.7
20260504230050 52 0.0 0.0 0.00 0.29 0.18 61 1002.4
20260504224604 52 0.0 0.0 0.00 0.29 0.18 59 1002.3
20260504223047 53 0.0 0.0 0.00 0.29 0.18 58 1002.2
20260504221552 54 0.0 0.0 0.00 0.29 0.18 57 1002.1
20260504220058 54 0.0 0.0 0.00 0.29 0.18 57 1001.9
20260504214546 55 0.0 0.0 0.00 0.29 0.18 56 1001.9
20260504213119 54 0.0 0.0 0.00 0.29 0.18 57 1001.7
20260504211547 55 0.0 0.0 0.00 0.29 0.18 55 1001.7
20260504210049 55 0.0 0.0 0.00 0.29 0.18 55 1001.3
20260504204552 55 0.0 0.0 0.00 0.29 0.18 54 1001.2
20260504203112 54 0.0 0.0 0.00 0.29 0.18 53 1001.0
20260504201551 54 17.0 18.0 0.00 0.29 0.18 56 1000.8
20260504200052 53 248 16.0 32.0 0.00 0.29 0.18 58 1000.7
20260504194602 54 253 22.0 38.0 0.00 0.29 0.18 55 1000.4
20260504193056 54 258 19.0 43.0 0.00 0.29 0.18 55 1000.0
20260504191549 53 274 28.0 40.0 0.00 0.29 0.18 59 999.9
20260504190050 53 255 28.0 38.0 0.00 0.29 0.18 60 999.6
20260504184605 53 280 27.0 40.0 0.00 0.29 0.18 62 999.4
20260504183050 53 269 31.0 49.0 0.00 0.29 0.18 67 999.1
20260504181549 52 281 19.0 38.0 0.00 0.29 0.18 67 999.0
20260504180049 51 259 24.0 39.0 0.00 0.29 0.18 71 998.9
20260504174545 50 270 30.0 44.0 0.00 0.29 0.18 75 998.6
20260504173051 49 257 24.0 40.0 0.00 0.29 0.18 76 998.6
20260504171552 49 272 24.0 35.0 0.00 0.29 0.18 79 998.3
20260504090108 0 0.0 0.0 0.00 0.11 0.00 980.4
20260504081547 0 0.0 0.0 0.00 0.11 0.00 978.7
20260504044558 0 152 11.0 18.0 0.00 0.11 0.00 973.0
20260504043046 0 129 12.0 21.0 0.00 0.11 0.00 972.9